Flag for Germany Weather past 2 weeks in Neumarkt in der Oberpfalz, Bavaria, Germany

Now
75 °F

Broken clouds.


Feels Like: 77 °F
Forecast: 60 / 71 °F
Wind: 3 mph from East

Location: Hohenfels

Current Time: Jul 29, 2014 at 7:03:20 PM

Latest Report: Jul 29, 2014 at 3:58 PM


Visibility: N/A

Pressure: 29.71 "Hg

Humidity: 61%

Dew point: 61 °F

Location of Neumarkt in der OberpfalzLocation

Historic Weather in Neumarkt in der Oberpfalz — Graph

°F

Neumarkt in der Oberpfalz temperature yesterday

Maximum temperature yesterday: 79 °F (at 3:58 PM)
Minimum temperature yesterday: 57 °F (at 5:58 AM)
Average temperature yesterday: 67 °F

Past Weeks' High & Low Weather Summary

 TemperatureHumidityPressure
High90 °F (Jul 20, 3:58 PM)100% (Jul 21, 11:58 PM)30.18 "Hg (Jul 21, 11:58 PM)
Low52 °F (Jul 24, 4:58 AM)24% (Jul 20, 3:58 PM)29.71 "Hg (Jul 29, 3:58 PM)
Average68 °F71%29.96 "Hg
* Reported Jul 14 3:58 PM — Jul 29 3:58 PM, Neumarkt in der Oberpfalz, Weather by CustomWeather, © 2014

Note: Actual official high and low records may vary slightly from our data, if they occured in-between our weather recording intervals... More about our weather records

Advertising

Neumarkt in der Oberpfalz weather history for previous 24 hours

 ConditionsComfort  
Time TempWeatherWind HumidityBarometerVisibility
3:58 PM
Jul 29
75 °FBroken clouds.3 mph61%29.71 "HgN/A
2:58 PM77 °FPassing clouds.6 mph57%29.72 "HgN/A
9:58 AM70 °FPartly sunny.3 mph78%29.77 "HgN/A
8:58 AM68 °FSunny.5 mph83%29.76 "HgN/A
7:58 AM64 °FSunny.No wind88%29.76 "HgN/A
6:58 AM59 °FPassing clouds.No wind100%29.77 "HgN/A
5:58 AM57 °FClear.No wind100%29.77 "HgN/A
4:58 AM59 °FMostly cloudy.No wind100%29.77 "HgN/A
3:58 AM59 °FPassing clouds.No wind94%29.77 "HgN/A
2:58 AM59 °FClear.2 mph94%29.78 "HgN/A
1:58 AM61 °FClear.3 mph94%29.79 "HgN/A
12:58 AM61 °FClear.5 mph94%29.78 "HgN/A
11:58 PM
Jul 28
64 °FClear.No wind83%29.78 "HgN/A
10:58 PM68 °FClear.2 mph78%29.80 "HgN/A
9:58 PM66 °FClear.No wind88%29.81 "HgN/A
8:58 PM72 °FSunny.2 mph73%29.81 "HgN/A
7:58 PM73 °FSunny.5 mph65%29.80 "HgN/A
Weather by CustomWeather, © 2014

See weather overviewHow to use our weather pages